Grand Forks, ND

1:35 PM CDT on June 19, 2018 (GMT -0500)
Grand Forks International

Weather History for KGFK - August, 2017

Change the Weather History Date:

Sunday, August 13, 2017

  Actual Average Record
Temperature  
Mean Temperature 66 °F 68 °F  
Max Temperature 76 °F 81 °F 99 °F (1961)
Min Temperature 55 °F 55 °F 37 °F (1964)
Degree Days  
Heating Degree Days 0 1  
Month to date heating degree days 2 13  
Since 1 June heating degree days 55 144  
Since 1 July heating degree days 10 41  
Cooling Degree Days 1 4  
Month to date cooling degree days 24 63  
Year to date cooling degree days 337 296  
Since 1 June cooling degree days 335 279  
Growing Degree Days 17 (Base 50)    
Moisture  
Dew Point 58 °F    
Average Humidity 74    
Maximum Humidity 97    
Minimum Humidity 50    
Precipitation  
Precipitation 0.08 in 0.09 in 0.66 in (1980)
Month to date precipitation 0.62 1.17  
Year to date precipitation 10.51 13.52  
Snow  
Snow 0.00 in 0.00 in - ()
Month to date snowfall 0.0 0.0  
Since 1 June snowfall 0.0 0.0  
Since 1 July snowfall 0.0 0.0  
Snow Depth 0.00 in    
Sea Level Pressure  
Sea Level Pressure 29.92 in    
Wind  
Wind Speed 7 mph (East)    
Max Wind Speed 18 mph    
Max Gust Speed 24 mph    
Visibility 10 miles    
Events Rain    
T = Trace of Precipitation, MM = Missing Value Source: NWS Daily Summary

Daily Weather History Graph

Daily Weather History Graph

Search for Another Location

Airport or City:

Astronomy

Aug. 13, 2017 Rise Set
Actual Time 6:21 AM CDT 8:44 PM CDT
Civil Twilight 5:46 AM CDT 9:18 PM CDT
Nautical Twilight 5:03 AM CDT 10:01 PM CDT
Astronomical Twilight 4:14 AM CDT 10:50 PM CDT
Moon 11:51 PM CDT (8/13) 12:48 PM CDT (8/13)
Length of Visible Light 15h 32m
Length of Day
14h 23m
Waning Gibbous, 65% of the Moon is Illuminated
Aug 13
Waning Gibbous
Aug 14
Last Quarter
Aug 21
New
Aug 29
First Quarter
Sep 6
Full

Hourly Weather History & Observations

Time (CDT) Temp. Dew Point Humidity Pressure Visibility Wind Dir Wind Speed Gust Speed Precip Events Conditions
12:53 AM 59.0 °F 57.9 °F 96% 30.00 in 10.0 mi SSW 5.8 mph - N/A   Clear
1:53 AM 61.0 °F 57.9 °F 90% 29.98 in 10.0 mi Calm Calm - N/A   Clear
2:53 AM 61.0 °F 59.0 °F 93% 29.97 in 10.0 mi North 3.5 mph - N/A   Mostly Cloudy
3:53 AM 61.0 °F 59.0 °F 93% 29.97 in 10.0 mi North 3.5 mph - N/A   Overcast
4:53 AM 61.0 °F 57.9 °F 90% 29.95 in 10.0 mi NE 3.5 mph - N/A   Overcast
5:53 AM 61.0 °F 59.0 °F 93% 29.96 in 10.0 mi SW 3.5 mph - 0.00 in   Mostly Cloudy
6:53 AM 61.0 °F 61.0 °F 100% 29.97 in 5.0 mi SSE 4.6 mph - 0.05 in Rain Rain
7:53 AM 62.1 °F 62.1 °F 100% 29.97 in 10.0 mi Calm Calm - 0.03 in   Mostly Cloudy
8:53 AM 64.9 °F 63.0 °F 93% 29.97 in 10.0 mi South 4.6 mph - N/A   Mostly Cloudy
9:53 AM 64.9 °F 62.1 °F 90% 29.97 in 10.0 mi Calm Calm - N/A   Mostly Cloudy
10:53 AM 64.9 °F 62.1 °F 90% 29.96 in 10.0 mi Calm Calm - N/A   Overcast
11:53 AM 70.0 °F 60.1 °F 71% 29.95 in 10.0 mi ESE 10.4 mph 16.1 mph N/A   Mostly Cloudy
12:53 PM 72.0 °F 57.9 °F 61% 29.94 in 10.0 mi SE 13.8 mph 19.6 mph N/A   Mostly Cloudy
1:53 PM 73.0 °F 57.9 °F 59% 29.93 in 10.0 mi ESE 10.4 mph - N/A   Mostly Cloudy
2:53 PM 73.9 °F 55.9 °F 53% 29.91 in 10.0 mi East 13.8 mph 18.4 mph N/A   Mostly Cloudy
3:53 PM 75.9 °F 55.9 °F 50% 29.89 in 10.0 mi ESE 10.4 mph - N/A   Mostly Cloudy
4:53 PM 75.0 °F 55.9 °F 51% 29.88 in 10.0 mi East 16.1 mph 20.7 mph N/A   Scattered Clouds
5:53 PM 73.9 °F 55.0 °F 52% 29.87 in 10.0 mi East 12.7 mph - N/A   Scattered Clouds
6:53 PM 72.0 °F 55.9 °F 57% 29.86 in 10.0 mi East 12.7 mph - N/A   Scattered Clouds
7:53 PM 70.0 °F 57.0 °F 63% 29.86 in 10.0 mi ESE 8.1 mph - N/A   Scattered Clouds
8:53 PM 64.9 °F 57.0 °F 75% 29.86 in 10.0 mi East 5.8 mph - N/A   Scattered Clouds
9:53 PM 63.0 °F 57.9 °F 84% 29.87 in 10.0 mi East 4.6 mph - N/A   Clear
10:53 PM 61.0 °F 57.9 °F 90% 29.88 in 10.0 mi ENE 5.8 mph - N/A   Clear
11:30 PM 61.0 °F 57.9 °F 90% 29.88 in 10.0 mi ENE 5.8 mph - N/A   Clear
11:53 PM 61.0 °F 57.9 °F 90% 29.87 in 10.0 mi ENE 5.8 mph - N/A   Clear